Location: Zagreb
(45.8000°N, 16.0000°E)
Time: 18:43:01
(UTC+02:00)

A-11 Canister half - Pass Details

Date: 18 August 2022
Orbit: 1524 x 1684 km, 47.3° (Epoch: 05 October)

Event Time Altitude Azimuth Distance (km) Brightness Sun altitude
Rises 10:17:09 0° 292° (WNW) 4,943 11.2 42.6°
Reaches altitude 10° 10:20:22 10° 289° (WNW) 3,951 10.8 43.1°
Maximum altitude 10:30:17 61° 213° (SSW) 1,854 10.1 44.5°
Drops below altitude 10° 10:39:58 10° 136° (SE) 3,862 12.1 45.9°
Sets 10:43:05 0° 133° (SE) 4,826 12.3 46.3°
